{"data":{"norad_id":62592,"epoch":"2026-09-21T14:40:01.160256Z","epoch_age_seconds":75284,"freshness":"FRESH","line1":"1 62592U 25008F   26264.61112454  .00054331  00000+0  42390-3 0  9999","line2":"2 62592  42.9985  25.5671 0000957 240.5757 119.5015 15.70853904 98034","mean_motion":15.70853904,"eccentricity":9.57e-5,"inclination_deg":42.9985,"raan_deg":25.5671,"arg_perigee_deg":240.5757,"mean_anomaly_deg":119.5015,"bstar":0.0004239,"rev_number":9803,"period_min":91.669887080728,"perigee_km":355.81082114233,"apogee_km":357.09982211269,"semimajor_km":6734.5923216275,"source":"CELESTRAK","updated_at":"2026-09-22T09:00:49.631500Z"}}